Location: Newark
(45.0500°N, 41.9667°E)
Time: 06:54:53
(UTC+00:00)

Starlink (trailer) - Pass Details

Date: 31 July 2019
Orbit: 549 x 551 km, 53.0° (Epoch: 25 August)

Event Time Altitude Azimuth Distance (km) Brightness Sun altitude
Rises 22:06:13 0° 296° (WNW) 2,721 7.3 -25.9°
Reaches altitude 10° 22:08:41 10° 308° (NW) 1,827 6.5 -25.8°
Maximum altitude 22:12:19 29° 9° (N) 1,029 5.6 -25.6°
Drops below altitude 10° 22:15:58 10° 71° (ENE) 1,826 6.7 -25.5°
Sets 22:18:26 0° 83° (E) 2,719 7.5 -25.3°
